Dades meteomassalio
Diari Summary for Juny 13, 2017 Units:  English    Metric   Both
« Previous Day
Next Day »
Diari Semanal Mensual Anual Personalitzat
  Maxima: Minima: Mijana:
Temperatura: TemperatureC °F 15.4 °F 26.6 °F
Rosada: DewpointC °F 8.7 °F 12.9 °F
Humitat: Humidity % 25 % 46 %
Velocitat del vent: WindSpeedKMH mph 0.0 mph 9.4 mph
Racha vent: WindSpeedGustKMH mph - -
Vent:- - ESE
Pressio: PressurehPa in 1010.0 in -
Pluja: 0.0 in    
Historical Graphs
 
 
Tabular Data for Juny 13, 2017
Time Temperature Dew Point Pressure Wind Wind Speed Wind Gust Humidity Rainfall Rate (Hourly) solar Conditions
TemperatureC °F DewpointC °F PressurehPa in Calm     Humidity % HourlyPrecipMM in SolarRadiationWatts/m^2 W/m2 Conditions
00:03 24.4 °F 11.7 °F 1013.8 in Calm     45 % 0.0 in 0.0 W/m2 CLR
00:08 24.4 °F 11.7 °F 1013.8 in Calm     45 % 0.0 in 0.0 W/m2 CLR
00:13 24.2 °F 11.6 °F 1013.8 in Calm     45 % 0.0 in 0.0 W/m2 CLR
00:18 24.1 °F 12.4 °F 1013.8 in Calm     48 % 0.0 in 0.0 W/m2 CLR
00:23 23.6 °F 12.6 °F 1013.8 in Calm     50 % 0.0 in 0.0 W/m2 CLR
00:28 23.3 °F 12.6 °F 1013.8 in Calm     51 % 0.0 in 0.0 W/m2 CLR
00:33 23.0 °F 12.3 °F 1013.8 in Calm     51 % 0.0 in 0.0 W/m2 CLR
00:38 22.8 °F 12.7 °F 1013.8 in Calm     53 % 0.0 in 0.0 W/m2 CLR
00:43 22.4 °F 12.7 °F 1013.8 in Calm     54 % 0.0 in 0.0 W/m2 CLR
00:48 22.2 °F 12.7 °F 1013.8 in Calm     55 % 0.0 in 0.0 W/m2 CLR
00:53 21.9 °F 12.7 °F 1013.8 in Calm     56 % 0.0 in 0.0 W/m2 CLR
00:58 21.7 °F 12.8 °F 1013.8 in Calm     57 % 0.0 in 0.0 W/m2 CLR
01:03 21.5 °F 12.6 °F 1013.8 in Calm     57 % 0.0 in 0.0 W/m2 CLR
01:08 21.3 °F 12.7 °F 1013.8 in Calm     58 % 0.0 in 0.0 W/m2 CLR
01:13 21.1 °F 12.7 °F 1013.4 in Calm     59 % 0.0 in 0.0 W/m2 CLR
01:18 20.8 °F 12.3 °F 1013.4 in Calm     58 % 0.0 in 0.0 W/m2 CLR
01:23 20.7 °F 12.4 °F 1013.4 in Calm     59 % 0.0 in 0.0 W/m2 CLR
01:28 20.5 °F 12.2 °F 1013.4 in Calm     59 % 0.0 in 0.0 W/m2 CLR
01:33 20.3 °F 12.3 °F 1013.4 in Calm     60 % 0.0 in 0.0 W/m2 CLR
01:38 20.3 °F 12.3 °F 1013.4 in Calm     60 % 0.0 in 0.0 W/m2 CLR
01:43 20.2 °F 12.4 °F 1013.4 in Calm     61 % 0.0 in 0.0 W/m2 CLR
01:48 20.0 °F 12.5 °F 1013.4 in Calm     62 % 0.0 in 0.0 W/m2 CLR
01:53 19.8 °F 12.6 °F 1013.1 in Calm     63 % 0.0 in 0.0 W/m2 CLR
01:58 19.6 °F 12.4 °F 1013.1 in Calm     63 % 0.0 in 0.0 W/m2 CLR
02:03 19.5 °F 12.5 °F 1013.1 in Calm     64 % 0.0 in 0.0 W/m2 CLR
02:08 19.3 °F 12.3 °F 1013.1 in Calm     64 % 0.0 in 0.0 W/m2 CLR
02:13 19.2 °F 12.5 °F 1013.1 in Calm     65 % 0.0 in 0.0 W/m2 CLR
02:18 19.1 °F 12.4 °F 1013.1 in Calm     65 % 0.0 in 0.0 W/m2 CLR
02:23 19.0 °F 12.5 °F 1013.1 in Calm     66 % 0.0 in 0.0 W/m2 CLR
02:28 18.8 °F 12.6 °F 1013.1 in Calm     67 % 0.0 in 0.0 W/m2 CLR
02:33 18.7 °F 12.4 °F 1013.1 in Calm     67 % 0.0 in 0.0 W/m2 CLR
02:38 18.6 °F 12.3 °F 1013.1 in Calm     67 % 0.0 in 0.0 W/m2 CLR
02:43 18.5 °F 12.5 °F 1013.1 in Calm     68 % 0.0 in 0.0 W/m2 CLR
02:48 18.4 °F 12.2 °F 1013.1 in Calm     67 % 0.0 in 0.0 W/m2 CLR
02:53 18.3 °F 12.1 °F 1013.1 in Calm     67 % 0.0 in 0.0 W/m2 CLR
02:58 18.2 °F 12.0 °F 1013.1 in Calm     67 % 0.0 in 0.0 W/m2 CLR
03:03 18.1 °F 12.1 °F 1013.1 in Calm     68 % 0.0 in 0.0 W/m2 CLR
03:08 18.0 °F 12.2 °F 1013.1 in Calm     69 % 0.0 in 0.0 W/m2 CLR
03:13 17.8 °F 11.8 °F 1013.1 in Calm     68 % 0.0 in 0.0 W/m2 CLR
03:18 17.7 °F 11.9 °F 1013.1 in Calm     69 % 0.0 in 0.0 W/m2 CLR
03:23 17.7 °F 11.9 °F 1013.1 in Calm     69 % 0.0 in 0.0 W/m2 CLR
03:28 17.7 °F 12.2 °F 1013.1 in Calm     70 % 0.0 in 0.0 W/m2 CLR
03:33 17.7 °F 12.1 °F 1013.1 in Calm     70 % 0.0 in 0.0 W/m2 CLR
03:38 17.7 °F 12.1 °F 1013.1 in Calm     70 % 0.0 in 0.0 W/m2 CLR
03:43 17.6 °F 12.0 °F 1013.1 in Calm     70 % 0.0 in 0.0 W/m2 CLR
03:48 17.4 °F 11.8 °F 1012.8 in Calm     70 % 0.0 in 0.0 W/m2 CLR
03:50 17.4 °F 11.8 °F 1012.8 in Calm     70 % 0.0 in 0.0 W/m2 CLR
03:54 17.3 °F 11.9 °F 1013.1 in Calm     71 % 0.0 in 0.0 W/m2 CLR
04:00 17.1 °F 11.8 °F 1013.1 in Calm     71 % 0.0 in 0.0 W/m2 CLR
04:05 17.1 °F 11.9 °F 1013.1 in Calm     72 % 0.0 in 0.0 W/m2 CLR
04:15 16.8 °F 11.9 °F 1012.8 in Calm     73 % 0.0 in 0.0 W/m2 CLR
04:20 16.8 °F 11.9 °F 1012.8 in Calm     73 % 0.0 in 0.0 W/m2 CLR
04:25 16.7 °F 11.8 °F 1012.8 in Calm     73 % 0.0 in 0.0 W/m2 CLR
04:30 16.6 °F 11.9 °F 1012.8 in Calm     74 % 0.0 in 0.0 W/m2 CLR
04:35 16.6 °F 11.9 °F 1012.8 in Calm     74 % 0.0 in 0.0 W/m2 CLR
04:40 16.4 °F 12.0 °F 1012.8 in Calm     75 % 0.0 in 0.0 W/m2 CLR
04:45 16.3 °F 11.9 °F 1012.8 in Calm     75 % 0.0 in 0.0 W/m2 CLR
04:50 16.3 °F 11.8 °F 1012.8 in Calm     75 % 0.0 in 0.0 W/m2 CLR
04:56 16.2 °F 12.0 °F 1013.1 in Calm     76 % 0.0 in 0.0 W/m2 CLR
05:01 16.2 °F 12.0 °F 1013.1 in Calm     76 % 0.0 in 0.0 W/m2 CLR
05:06 16.2 °F 11.9 °F 1013.1 in Calm     76 % 0.0 in 0.0 W/m2 CLR
05:11 16.2 °F 11.9 °F 1013.1 in Calm     76 % 0.0 in 0.0 W/m2 CLR
05:16 16.1 °F 11.7 °F 1013.1 in Calm     75 % 0.0 in 0.0 W/m2 CLR
05:21 16.1 °F 11.8 °F 1012.8 in Calm     76 % 0.0 in 0.0 W/m2 CLR
05:26 15.9 °F 11.7 °F 1013.1 in Calm     76 % 0.0 in 0.0 W/m2 CLR
05:31 16.0 °F 11.8 °F 1013.1 in Calm     76 % 0.0 in 0.0 W/m2 CLR
05:36 16.0 °F 11.8 °F 1013.1 in Calm     76 % 0.0 in 0.0 W/m2 CLR
05:46 15.8 °F 11.8 °F 1013.1 in Calm     77 % 0.0 in 0.0 W/m2 CLR
05:51 15.9 °F 11.8 °F 1013.1 in Calm     77 % 0.0 in 0.0 W/m2 CLR
05:56 15.8 °F 11.8 °F 1013.1 in Calm     77 % 0.0 in 0.0 W/m2 CLR
06:01 15.7 °F 11.7 °F 1013.1 in Calm     77 % 0.0 in 0.0 W/m2 CLR
06:06 15.6 °F 11.6 °F 1013.1 in Calm     77 % 0.0 in 0.0 W/m2 CLR
06:11 15.6 °F 11.7 °F 1013.1 in Calm     78 % 0.0 in 0.0 W/m2 CLR
06:16 15.6 °F 11.7 °F 1013.1 in Calm     78 % 0.0 in 0.0 W/m2 OVC
06:21 15.5 °F 11.9 °F 1013.1 in Calm     79 % 0.0 in 0.0 W/m2 OVC
06:26 15.4 °F 11.8 °F 1013.1 in Calm     79 % 0.0 in 0.0 W/m2 OVC
06:31 15.4 °F 11.8 °F 1013.1 in Calm     79 % 0.0 in 5.0 W/m2 OVC
06:36 15.4 °F 11.8 °F 1013.1 in Calm     79 % 0.0 in 7.0 W/m2 BKN
06:41 15.4 °F 11.8 °F 1013.1 in Calm     79 % 0.0 in 9.0 W/m2 BKN
06:46 15.4 °F 11.8 °F 1013.1 in Calm     79 % 0.0 in 11.0 W/m2 BKN
06:51 15.4 °F 11.8 °F 1013.4 in Calm     79 % 0.0 in 12.0 W/m2 BKN
06:56 15.4 °F 11.8 °F 1013.1 in Calm     79 % 0.0 in 14.0 W/m2 BKN
07:01 15.4 °F 11.9 °F 1013.4 in Calm     80 % 0.0 in 18.0 W/m2 BKN
07:06 15.4 °F 11.9 °F 1013.4 in Calm     80 % 0.0 in 26.0 W/m2 BKN
07:11 15.4 °F 12.0 °F 1013.4 in Calm     80 % 0.0 in 40.0 W/m2 BKN
07:16 15.6 °F 12.2 °F 1013.4 in Calm     80 % 0.0 in 49.0 W/m2 SCT
07:21 15.9 °F 12.4 °F 1013.4 in Calm     80 % 0.0 in 62.0 W/m2 SCT
07:26 16.2 °F 12.5 °F 1013.4 in Calm     79 % 0.0 in 74.0 W/m2 FEW
07:31 16.4 °F 12.6 °F 1013.4 in Calm     78 % 0.0 in 90.0 W/m2 FEW
07:36 16.8 °F 13.0 °F 1013.4 in Calm     78 % 0.0 in 104.0 W/m2 CLR
07:41 17.3 °F 13.0 °F 1013.4 in Calm     76 % 0.0 in 120.0 W/m2 CLR
07:46 17.6 °F 12.9 °F 1013.4 in Calm     74 % 0.0 in 135.0 W/m2 CLR
07:51 18.1 °F 12.9 °F 1013.8 in Calm     72 % 0.0 in 151.0 W/m2 CLR
07:56 18.4 °F 13.1 °F 1013.4 in Calm     71 % 0.0 in 172.0 W/m2 CLR
08:01 18.9 °F 13.5 °F 1013.4 in Calm     71 % 0.0 in 188.0 W/m2 CLR
08:06 19.5 °F 13.7 °F 1013.4 in Calm     69 % 0.0 in 206.0 W/m2 CLR
08:11 20.1 °F 13.8 °F 1013.4 in Calm     67 % 0.0 in 221.0 W/m2 CLR
08:16 20.8 °F 14.2 °F 1013.4 in Calm     66 % 0.0 in 239.0 W/m2 CLR
08:21 21.4 °F 13.8 °F 1013.4 in Calm     62 % 0.0 in 255.0 W/m2 CLR
08:26 21.6 °F 14.3 °F 1013.4 in Calm     63 % 0.0 in 269.0 W/m2 CLR
08:31 22.0 °F 14.4 °F 1013.8 in Calm     62 % 0.0 in 283.0 W/m2 CLR
08:36 22.5 °F 14.3 °F 1013.4 in Calm     60 % 0.0 in 301.0 W/m2 CLR
08:41 23.1 °F 14.9 °F 1013.4 in Calm     60 % 0.0 in 315.0 W/m2 CLR
08:46 23.5 °F 15.0 °F 1013.8 in Calm     59 % 0.0 in 330.0 W/m2 CLR
08:51 23.9 °F 14.6 °F 1013.4 in Calm     56 % 0.0 in 346.0 W/m2 CLR
08:56 24.0 °F 14.7 °F 1013.4 in Calm     56 % 0.0 in 364.0 W/m2 CLR
09:01 23.9 °F 14.3 °F 1013.4 in Calm     55 % 0.0 in 378.0 W/m2 CLR
09:06 24.2 °F 14.8 °F 1013.4 in Calm     56 % 0.0 in 392.0 W/m2 CLR
09:11 24.5 °F 14.9 °F 1013.4 in Calm     55 % 0.0 in 408.0 W/m2 CLR
09:16 24.9 °F 14.7 °F 1013.4 in Calm     53 % 0.0 in 424.0 W/m2 CLR
09:21 25.4 °F 14.5 °F 1013.4 in Calm     51 % 0.0 in 441.0 W/m2 CLR
09:26 25.7 °F 14.5 °F 1013.4 in Calm     50 % 0.0 in 455.0 W/m2 CLR
09:31 26.1 °F 14.2 °F 1013.4 in Calm     48 % 0.0 in 469.0 W/m2 CLR
09:36 26.6 °F 14.3 °F 1013.4 in Calm     47 % 0.0 in 485.0 W/m2 CLR
09:41 26.7 °F 14.2 °F 1013.4 in Calm     46 % 0.0 in 501.0 W/m2 CLR
09:46 27.1 °F 14.4 °F 1013.4 in ENE 7.4 mph 7.4 mph 46 % 0.0 in 517.0 W/m2 CLR
09:51 27.4 °F 14.1 °F 1013.4 in ENE 1.9 mph   44 % 0.0 in 531.0 W/m2 CLR
09:56 27.7 °F 14.0 °F 1013.4 in East 9.3 mph 9.3 mph 43 % 0.0 in 545.0 W/m2 CLR
10:01 27.9 °F 13.8 °F 1013.1 in East 9.3 mph 9.3 mph 42 % 0.0 in 559.0 W/m2 CLR
10:06 28.1 °F 14.3 °F 1013.1 in ENE 5.6 mph 5.6 mph 43 % 0.0 in 575.0 W/m2 CLR
10:11 28.3 °F 14.2 °F 1013.1 in Calm     42 % 0.0 in 587.0 W/m2 CLR
10:16 28.6 °F 14.8 °F 1013.1 in Calm     43 % 0.0 in 601.0 W/m2 CLR
10:21 28.9 °F 14.3 °F 1013.1 in ENE 11.1 mph 11.1 mph 41 % 0.0 in 615.0 W/m2 CLR
10:26 29.1 °F 14.1 °F 1013.1 in ENE 5.6 mph   40 % 0.0 in 631.0 W/m2 CLR
10:27 29.1 °F 14.1 °F 1013.1 in Calm     40 % 0.0 in 631.0 W/m2 CLR
10:32 29.4 °F 13.2 °F 1012.8 in East 5.6 mph 5.6 mph 37 % 0.0 in 645.0 W/m2 CLR
10:37 29.4 °F 12.8 °F 1012.8 in East 11.1 mph 11.1 mph 36 % 0.0 in 657.0 W/m2 CLR
10:42 29.4 °F 12.8 °F 1012.8 in Calm     36 % 0.0 in 673.0 W/m2 CLR
10:47 29.8 °F 13.2 °F 1012.8 in ENE 9.3 mph 9.3 mph 36 % 0.0 in 684.0 W/m2 CLR
10:52 30.1 °F 12.9 °F 1012.8 in ESE 5.6 mph 5.6 mph 35 % 0.0 in 696.0 W/m2 CLR
10:57 30.1 °F 12.9 °F 1012.8 in ENE 5.6 mph 5.6 mph 35 % 0.0 in 708.0 W/m2 CLR
11:02 30.2 °F 13.5 °F 1012.8 in ENE 3.7 mph 3.7 mph 36 % 0.0 in 721.0 W/m2 CLR
11:07 30.3 °F 13.2 °F 1012.8 in ENE 3.7 mph 3.7 mph 35 % 0.0 in 731.0 W/m2 CLR
11:12 30.4 °F 12.8 °F 1012.8 in Calm     34 % 0.0 in 744.0 W/m2 CLR
11:17 30.6 °F 12.9 °F 1012.8 in East 7.4 mph 7.4 mph 34 % 0.0 in 754.0 W/m2 CLR
11:22 30.8 °F 13.6 °F 1012.4 in NNE 3.2 mph 3.2 mph 35 % 0.0 in 766.0 W/m2 CLR
11:27 31.1 °F 13.8 °F 1012.4 in East 9.7 mph 9.7 mph 35 % 0.0 in 777.0 W/m2 CLR
11:32 31.1 °F 14.3 °F 1012.4 in ENE 8.0 mph 8.0 mph 36 % 0.0 in 786.0 W/m2 CLR
11:37 31.2 °F 13.9 °F 1012.4 in ENE 11.1 mph 11.1 mph 35 % 0.0 in 798.0 W/m2 CLR
11:42 31.4 °F 14.1 °F 1012.4 in East 9.3 mph 9.3 mph 35 % 0.0 in 805.0 W/m2 CLR
11:47 31.3 °F 14.1 °F 1012.4 in East 11.3 mph 11.3 mph 35 % 0.0 in 817.0 W/m2 CLR
11:52 31.3 °F 14.1 °F 1012.1 in SSE 13.0 mph 13.0 mph 35 % 0.0 in 826.0 W/m2 CLR
11:57 31.6 °F 13.3 °F 1012.4 in East 18.5 mph 18.5 mph 33 % 0.0 in 831.0 W/m2 CLR
12:02 31.7 °F 13.0 °F 1012.1 in SE 14.8 mph 14.8 mph 32 % 0.0 in 844.0 W/m2 CLR
12:07 31.8 °F 13.1 °F 1012.1 in ESE 18.5 mph 18.5 mph 32 % 0.0 in 851.0 W/m2 CLR
12:12 31.9 °F 13.6 °F 1012.1 in ENE 14.8 mph 14.8 mph 33 % 0.0 in 860.0 W/m2 CLR
12:17 32.1 °F 13.3 °F 1012.1 in ESE 16.7 mph 16.7 mph 32 % 0.0 in 867.0 W/m2 CLR
12:22 32.3 °F 13.0 °F 1012.1 in East 18.5 mph 18.5 mph 31 % 0.0 in 875.0 W/m2 CLR
12:27 32.3 °F 13.1 °F 1012.1 in ENE 11.1 mph 11.1 mph 31 % 0.0 in 881.0 W/m2 CLR
12:32 32.6 °F 13.2 °F 1012.1 in NE 9.7 mph 9.7 mph 31 % 0.0 in 882.0 W/m2 CLR
12:37 32.8 °F 13.4 °F 1012.1 in NE 18.5 mph 18.5 mph 31 % 0.0 in 891.0 W/m2 CLR
12:42 33.1 °F 13.2 °F 1012.1 in East 11.1 mph 11.1 mph 30 % 0.0 in 896.0 W/m2 CLR
12:47 33.2 °F 12.8 °F 1012.1 in East 12.9 mph 12.9 mph 29 % 0.0 in 900.0 W/m2 CLR
12:52 33.1 °F 12.7 °F 1012.1 in East 13.0 mph 13.0 mph 29 % 0.0 in 902.0 W/m2 CLR
12:57 33.4 °F 12.4 °F 1012.1 in SSE 9.7 mph 9.7 mph 28 % 0.0 in 909.0 W/m2 CLR
13:02 33.6 °F 12.6 °F 1012.1 in SSE 9.7 mph 9.7 mph 28 % 0.0 in 919.0 W/m2 CLR
13:07 33.9 °F 11.1 °F 1011.7 in SE 7.4 mph   25 % 0.0 in 925.0 W/m2 CLR
13:12 34.1 °F 12.4 °F 1011.7 in SE 8.0 mph 8.0 mph 27 % 0.0 in 921.0 W/m2 CLR
13:17 33.9 °F 11.7 °F 1011.7 in ESE 14.8 mph 14.8 mph 26 % 0.0 in 921.0 W/m2 CLR
13:22 34.1 °F 12.9 °F 1011.7 in ESE 8.0 mph 8.0 mph 28 % 0.0 in 926.0 W/m2 CLR
13:27 33.8 °F 12.2 °F 1011.7 in NE 9.3 mph 9.3 mph 27 % 0.0 in 928.0 W/m2 CLR
13:32 33.9 °F 12.3 °F 1011.7 in ESE 16.7 mph 16.7 mph 27 % 0.0 in 932.0 W/m2 CLR
13:37 34.2 °F 12.5 °F 1011.7 in East 14.8 mph 14.8 mph 27 % 0.0 in 932.0 W/m2 CLR
13:42 34.4 °F 12.2 °F 1011.7 in ESE 18.5 mph 18.5 mph 26 % 0.0 in 937.0 W/m2 CLR
13:47 34.3 °F 12.0 °F 1011.4 in SE 20.4 mph 20.4 mph 26 % 0.0 in 932.0 W/m2 CLR
13:52 34.4 °F 12.2 °F 1011.4 in SSE 18.5 mph 18.5 mph 26 % 0.0 in 935.0 W/m2 CLR
13:57 34.4 °F 12.7 °F 1011.4 in East 22.2 mph 22.2 mph 27 % 0.0 in 933.0 W/m2 CLR
14:02 34.2 °F 12.6 °F 1011.4 in SE 24.1 mph 24.1 mph 27 % 0.0 in 935.0 W/m2 CLR
14:07 33.9 °F 12.9 °F 1011.4 in ENE 16.7 mph 16.7 mph 28 % 0.0 in 932.0 W/m2 CLR
14:12 34.2 °F 12.6 °F 1011.4 in SSE 20.4 mph 20.4 mph 27 % 0.0 in 937.0 W/m2 CLR
14:17 34.1 °F 13.0 °F 1011.4 in SSE 20.4 mph 20.4 mph 28 % 0.0 in 932.0 W/m2 CLR
14:22 34.1 °F 12.9 °F 1011.4 in East 17.7 mph 17.7 mph 28 % 0.0 in 933.0 W/m2 CLR
14:27 34.2 °F 13.1 °F 1011.4 in East 24.1 mph 24.1 mph 28 % 0.0 in 932.0 W/m2 CLR
14:32 34.2 °F 13.6 °F 1011.4 in ESE 16.7 mph 16.7 mph 29 % 0.0 in 926.0 W/m2 CLR
14:37 34.3 °F 13.7 °F 1011.4 in SE 22.2 mph 22.2 mph 29 % 0.0 in 923.0 W/m2 CLR
14:42 34.2 °F 14.2 °F 1011.1 in ESE 14.8 mph 14.8 mph 30 % 0.0 in 921.0 W/m2 CLR
14:47 34.4 °F 13.8 °F 1011.1 in East 24.1 mph 24.1 mph 29 % 0.0 in 916.0 W/m2 CLR
14:52 34.4 °F 13.8 °F 1011.1 in ESE 16.7 mph 16.7 mph 29 % 0.0 in 911.0 W/m2 CLR
14:57 34.6 °F 14.0 °F 1011.1 in ESE 14.8 mph 14.8 mph 29 % 0.0 in 911.0 W/m2 CLR
15:02 34.4 °F 13.8 °F 1011.1 in ESE 24.1 mph 24.1 mph 29 % 0.0 in 900.0 W/m2 CLR
15:07 34.3 °F 14.2 °F 1011.1 in ESE 24.1 mph 24.1 mph 30 % 0.0 in 896.0 W/m2 CLR
15:12 34.3 °F 13.7 °F 1011.1 in ESE 22.2 mph 22.2 mph 29 % 0.0 in 889.0 W/m2 CLR
15:17 34.4 °F 14.3 °F 1011.1 in SE 18.5 mph 18.5 mph 30 % 0.0 in 886.0 W/m2 CLR
15:22 34.3 °F 13.7 °F 1010.7 in SE 18.5 mph 18.5 mph 29 % 0.0 in 882.0 W/m2 CLR
15:28 34.2 °F 13.7 °F 1010.7 in ESE 24.1 mph 24.1 mph 29 % 0.0 in 875.0 W/m2 CLR
15:33 34.3 °F 13.7 °F 1010.7 in ESE 16.7 mph 16.7 mph 29 % 0.0 in 870.0 W/m2 CLR
15:38 34.4 °F 13.8 °F 1010.7 in East 22.2 mph 22.2 mph 29 % 0.0 in 863.0 W/m2 CLR
15:43 34.7 °F 14.1 °F 1010.7 in SE 16.7 mph 16.7 mph 29 % 0.0 in 856.0 W/m2 CLR
15:48 34.9 °F 13.7 °F 1010.7 in ESE 24.1 mph 24.1 mph 28 % 0.0 in 847.0 W/m2 CLR
15:53 34.8 °F 14.1 °F 1010.7 in SE 9.7 mph 9.7 mph 29 % 0.0 in 838.0 W/m2 CLR
15:58 34.8 °F 13.6 °F 1010.7 in SE 16.7 mph 16.7 mph 28 % 0.0 in 831.0 W/m2 CLR
16:03 34.7 °F 14.1 °F 1010.4 in East 19.3 mph 19.3 mph 29 % 0.0 in 823.0 W/m2 CLR
16:08 34.7 °F 14.0 °F 1010.4 in East 14.8 mph 14.8 mph 29 % 0.0 in 809.0 W/m2 CLR
16:13 34.7 °F 13.6 °F 1010.4 in SE 25.9 mph 25.9 mph 28 % 0.0 in 802.0 W/m2 CLR
16:18 34.8 °F 14.2 °F 1010.4 in ENE 25.9 mph 25.9 mph 29 % 0.0 in 793.0 W/m2 CLR
16:23 34.8 °F 14.2 °F 1010.4 in SE 27.8 mph 27.8 mph 29 % 0.0 in 782.0 W/m2 CLR
16:28 34.4 °F 14.3 °F 1010.4 in ENE 29.6 mph 29.6 mph 30 % 0.0 in 770.0 W/m2 CLR
16:33 34.4 °F 14.9 °F 1010.4 in ESE 27.8 mph 27.8 mph 31 % 0.0 in 761.0 W/m2 CLR
16:38 34.4 °F 14.3 °F 1010.0 in East 20.4 mph 20.4 mph 30 % 0.0 in 752.0 W/m2 CLR
16:43 34.4 °F 14.9 °F 1010.4 in ESE 25.7 mph 25.7 mph 31 % 0.0 in 745.0 W/m2 CLR
16:44 34.4 °F 14.3 °F 1010.4 in ESE 20.9 mph 21.6 mph 30 % 0.0 in 742.0 W/m2 CLR
16:54 34.3 °F 14.3 °F 1010.0 in NE 20.4 mph 20.4 mph 30 % 0.0 in 717.0 W/m2 CLR
17:04 34.5 °F 14.4 °F 1010.0 in ESE 25.9 mph 25.9 mph 30 % 0.0 in 694.0 W/m2 CLR
17:09 34.4 °F 14.3 °F 1010.0 in ENE 20.4 mph 20.4 mph 30 % 0.0 in 684.0 W/m2 CLR
17:14 34.4 °F 14.9 °F 1010.0 in East 18.5 mph 18.5 mph 31 % 0.0 in 670.0 W/m2 CLR
17:19 34.5 °F 14.4 °F 1010.0 in ESE 27.8 mph 27.8 mph 30 % 0.0 in 657.0 W/m2 CLR
17:24 34.3 °F 14.3 °F 1010.4 in ESE 22.2 mph 22.2 mph 30 % 0.0 in 645.0 W/m2 CLR
17:29 34.4 °F 14.3 °F 1010.4 in East 20.9 mph 20.9 mph 30 % 0.0 in 633.0 W/m2 CLR
17:34 34.3 °F 14.8 °F 1010.0 in ESE 24.1 mph 24.1 mph 31 % 0.0 in 615.0 W/m2 CLR
17:39 34.4 °F 14.3 °F 1010.0 in SE 16.7 mph 16.7 mph 30 % 0.0 in 603.0 W/m2 CLR
17:44 34.3 °F 14.3 °F 1010.0 in SE 22.2 mph 22.2 mph 30 % 0.0 in 589.0 W/m2 CLR
17:49 34.4 °F 14.3 °F 1010.0 in ESE 22.2 mph 22.2 mph 30 % 0.0 in 571.0 W/m2 CLR
17:54 34.2 °F 13.7 °F 1010.0 in SE 22.2 mph 22.2 mph 29 % 0.0 in 557.0 W/m2 CLR
17:59 34.2 °F 13.7 °F 1010.0 in ESE 18.5 mph 18.5 mph 29 % 0.0 in 545.0 W/m2 CLR
18:04 34.3 °F 13.7 °F 1010.0 in SE 20.4 mph 20.4 mph 29 % 0.0 in 529.0 W/m2 CLR
18:09 34.1 °F 13.5 °F 1010.0 in South 25.9 mph 25.9 mph 29 % 0.0 in 517.0 W/m2 CLR
18:14 33.9 °F 13.9 °F 1010.0 in ESE 24.1 mph 24.1 mph 30 % 0.0 in 499.0 W/m2 CLR
18:19 33.9 °F 13.9 °F 1010.0 in SE 25.9 mph 25.9 mph 30 % 0.0 in 483.0 W/m2 CLR
18:24 33.7 °F 14.2 °F 1010.0 in ESE 24.1 mph 24.1 mph 31 % 0.0 in 469.0 W/m2 CLR
18:25 33.7 °F 14.7 °F 1010.0 in SE 22.5 mph 22.5 mph 32 % 0.0 in 468.0 W/m2 CLR
18:30 33.6 °F 15.1 °F 1010.0 in ESE 24.1 mph 24.1 mph 33 % 0.0 in 454.0 W/m2 CLR
18:35 33.4 °F 15.4 °F 1010.0 in SE 25.9 mph 25.9 mph 34 % 0.0 in 438.0 W/m2 CLR
18:36 33.4 °F 15.4 °F 1010.0 in SE 22.2 mph 22.2 mph 34 % 0.0 in 436.0 W/m2 CLR
18:41 33.4 °F 15.4 °F 1010.0 in SE 22.2 mph 22.2 mph 34 % 0.0 in 422.0 W/m2 CLR
18:46 33.5 °F 15.9 °F 1010.0 in SE 20.4 mph 20.4 mph 35 % 0.0 in 408.0 W/m2 CLR
18:51 33.5 °F 15.5 °F 1010.0 in SSE 18.5 mph 18.5 mph 34 % 0.0 in 394.0 W/m2 CLR
18:56 33.6 °F 15.6 °F 1010.0 in SE 16.7 mph 16.7 mph 34 % 0.0 in 376.0 W/m2 CLR
19:01 33.4 °F 14.9 °F 1010.0 in ESE 19.3 mph 19.3 mph 33 % 0.0 in 360.0 W/m2 CLR
19:06 33.4 °F 14.9 °F 1010.0 in SE 24.1 mph 24.1 mph 33 % 0.0 in 345.0 W/m2 CLR
19:11 33.1 °F 15.2 °F 1010.0 in SSE 18.5 mph 18.5 mph 34 % 0.0 in 332.0 W/m2 CLR
19:16 33.1 °F 15.1 °F 1010.0 in SE 18.5 mph 18.5 mph 34 % 0.0 in 313.0 W/m2 CLR
19:21 32.9 °F 15.0 °F 1010.0 in SE 19.3 mph 19.3 mph 34 % 0.0 in 299.0 W/m2 CLR
19:26 32.8 °F 14.9 °F 1010.0 in SE 20.4 mph 20.4 mph 34 % 0.0 in 285.0 W/m2 CLR
19:31 32.7 °F 15.3 °F 1010.0 in ESE 20.4 mph 20.4 mph 35 % 0.0 in 271.0 W/m2 CLR
19:36 32.6 °F 15.2 °F 1010.0 in SE 22.2 mph 22.2 mph 35 % 0.0 in 257.0 W/m2 CLR
19:41 32.4 °F 15.0 °F 1010.0 in SSE 24.1 mph 24.1 mph 35 % 0.0 in 239.0 W/m2 CLR
19:46 32.3 °F 14.9 °F 1010.0 in SE 25.9 mph 25.9 mph 35 % 0.0 in 223.0 W/m2 CLR
19:51 32.2 °F 15.2 °F 1010.0 in SE 27.8 mph 27.8 mph 36 % 0.0 in 209.0 W/m2 CLR
19:56 32.1 °F 14.7 °F 1010.0 in SE 19.3 mph 19.3 mph 35 % 0.0 in 193.0 W/m2 CLR
20:01 32.0 °F 15.1 °F 1010.4 in SSE 25.7 mph 25.7 mph 36 % 0.0 in 174.0 W/m2 CLR
20:06 31.9 °F 14.9 °F 1010.4 in SE 24.1 mph 24.1 mph 36 % 0.0 in 158.0 W/m2 CLR
20:11 31.7 °F 14.4 °F 1010.4 in SE 20.4 mph 20.4 mph 35 % 0.0 in 142.0 W/m2 CLR
20:16 31.5 °F 14.2 °F 1010.4 in SSE 27.8 mph 27.8 mph 35 % 0.0 in 127.0 W/m2 CLR
20:21 31.3 °F 14.1 °F 1010.4 in SSE 20.4 mph 20.4 mph 35 % 0.0 in 113.0 W/m2 CLR
20:26 31.3 °F 14.0 °F 1010.4 in SSE 18.5 mph 18.5 mph 35 % 0.0 in 97.0 W/m2 CLR
20:31 31.2 °F 14.3 °F 1010.4 in SE 18.5 mph 18.5 mph 36 % 0.0 in 83.0 W/m2 CLR
20:36 31.0 °F 14.2 °F 1010.4 in SE 18.5 mph 18.5 mph 36 % 0.0 in 72.0 W/m2 FEW
20:41 30.8 °F 14.1 °F 1010.0 in SE 20.9 mph 20.9 mph 36 % 0.0 in 60.0 W/m2 SCT
20:46 30.7 °F 13.9 °F 1010.0 in SSE 16.7 mph 16.7 mph 36 % 0.0 in 33.0 W/m2 BKN
20:51 30.6 °F 13.8 °F 1010.0 in SE 18.5 mph 18.5 mph 36 % 0.0 in 37.0 W/m2 BKN
20:57 30.5 °F 13.3 °F 1010.0 in SSE 22.2 mph 22.2 mph 35 % 0.0 in 26.0 W/m2 BKN
21:02 30.3 °F 13.6 °F 1010.0 in SE 22.5 mph 22.5 mph 36 % 0.0 in 21.0 W/m2 BKN
21:07 30.2 °F 13.4 °F 1010.0 in SSE 16.7 mph 16.7 mph 36 % 0.0 in 18.0 W/m2 BKN
21:12 30.1 °F 13.3 °F 1010.0 in South 18.5 mph 18.5 mph 36 % 0.0 in 12.0 W/m2 BKN
21:17 29.9 °F 13.2 °F 1010.4 in South 18.5 mph 18.5 mph 36 % 0.0 in 9.0 W/m2 BKN
21:22 29.8 °F 11.8 °F 1010.4 in SSE 14.8 mph 14.8 mph 33 % 0.0 in 7.0 W/m2 BKN
21:27 29.7 °F 11.3 °F 1010.4 in SSE 14.8 mph 14.8 mph 32 % 0.0 in 5.0 W/m2 OVC
21:32 29.6 °F 11.2 °F 1010.4 in SSE 20.4 mph 20.4 mph 32 % 0.0 in 0.0 W/m2 OVC
21:37 29.5 °F 11.1 °F 1010.4 in South 14.8 mph 14.8 mph 32 % 0.0 in 0.0 W/m2 OVC
21:42 29.3 °F 10.9 °F 1010.4 in South 24.1 mph 24.1 mph 32 % 0.0 in 0.0 W/m2 OVC
21:47 29.1 °F 10.7 °F 1010.4 in South 25.9 mph 25.9 mph 32 % 0.0 in 0.0 W/m2 CLR
21:52 29.0 °F 10.6 °F 1010.4 in South 27.8 mph 27.8 mph 32 % 0.0 in 0.0 W/m2 CLR
21:57 28.9 °F 11.0 °F 1010.4 in South 22.2 mph 22.2 mph 33 % 0.0 in 0.0 W/m2 CLR
22:02 28.8 °F 10.9 °F 1010.7 in SSW 11.1 mph 11.1 mph 33 % 0.0 in 0.0 W/m2 CLR
22:07 28.7 °F 10.8 °F 1010.7 in South 13.0 mph 13.0 mph 33 % 0.0 in 0.0 W/m2 CLR
22:12 28.6 °F 10.8 °F 1010.7 in South 18.5 mph 18.5 mph 33 % 0.0 in 0.0 W/m2 CLR
22:17 28.6 °F 10.8 °F 1010.7 in South 19.3 mph 19.3 mph 33 % 0.0 in 0.0 W/m2 CLR
22:22 28.6 °F 10.7 °F 1010.7 in South 16.7 mph 16.7 mph 33 % 0.0 in 0.0 W/m2 CLR
22:27 28.4 °F 10.6 °F 1011.1 in South 18.5 mph 18.5 mph 33 % 0.0 in 0.0 W/m2 CLR
22:32 28.4 °F 10.6 °F 1011.1 in South 14.8 mph 14.8 mph 33 % 0.0 in 0.0 W/m2 CLR
22:37 28.3 °F 10.5 °F 1010.7 in SSW 11.1 mph 11.1 mph 33 % 0.0 in 0.0 W/m2 CLR
22:42 28.2 °F 10.4 °F 1011.1 in SSW 11.3 mph 11.3 mph 33 % 0.0 in 0.0 W/m2 CLR
22:47 28.1 °F 10.3 °F 1011.1 in Calm     33 % 0.0 in 0.0 W/m2 CLR
22:52 28.0 °F 9.8 °F 1011.1 in Calm     32 % 0.0 in 0.0 W/m2 CLR
22:57 27.9 °F 10.1 °F 1011.1 in Calm     33 % 0.0 in 0.0 W/m2 CLR
23:02 27.8 °F 9.6 °F 1011.1 in South 8.0 mph 8.0 mph 32 % 0.0 in 0.0 W/m2 CLR
23:08 27.7 °F 9.5 °F 1011.1 in SSW 3.7 mph 3.7 mph 32 % 0.0 in 0.0 W/m2 CLR
23:13 27.6 °F 9.4 °F 1011.1 in Calm     32 % 0.0 in 0.0 W/m2 CLR
23:18 27.5 °F 9.3 °F 1011.4 in Calm     32 % 0.0 in 0.0 W/m2 CLR
23:23 27.4 °F 9.7 °F 1011.4 in Calm     33 % 0.0 in 0.0 W/m2 CLR
23:28 27.3 °F 9.1 °F 1011.4 in Calm     32 % 0.0 in 0.0 W/m2 CLR
23:33 27.1 °F 9.0 °F 1011.4 in Calm     32 % 0.0 in 0.0 W/m2 CLR
23:38 27.0 °F 8.9 °F 1011.4 in Calm     32 % 0.0 in 0.0 W/m2 CLR
23:43 26.8 °F 8.7 °F 1011.4 in Calm     32 % 0.0 in 0.0 W/m2 CLR
23:48 26.7 °F 9.1 °F 1011.4 in Calm     33 % 0.0 in 0.0 W/m2 CLR
23:53 26.5 °F 8.9 °F 1011.4 in Calm     33 % 0.0 in 0.0 W/m2 CLR
23:58 26.3 °F 10.1 °F 1011.4 in Calm     36 % 0.0 in 0.0 W/m2 CLR
Lo Temps de Massalio
Compliments of Weather Underground - 1.25 mb